Location: Liscomb Game Sanctuary
(45.1633°N, 62.5575°W)
Time: 12:50:21
(UTC-03:00)

Amateur Radio Satellites - All Passes

Search period start: 19 September 2014 12:20
Search period end: 20 September 2014 12:20
Location: Liscomb Game Sanctuary, 45.1633°N, 62.5575°W

Satellite Date Start Highest point End Downlink Frequencies (MHz)
Time Altitude Azimuth
Oscar 19 19 Sep 12:38:33 12:42:29 22° 62° (ENE) 12:46:26 437.125 CW, 437.150 USB
Sapphire 19 Sep 12:41:01 12:46:12 50° 115° (ESE) 12:51:26 437.095 MHz 1200 baud AX-25 AFSK
FUNcube-1 19 Sep 12:49:04 12:52:39 23° 296° (WNW) 12:56:12 145.950 - 145.970 MHz USB
AO-27 19 Sep 12:56:48 12:59:45 15° 57° (ENE) 13:02:41 436.795 MHz FM
PCSat 19 Sep 13:07:49 13:13:14 87° 121° (ESE) 13:18:42 145.825 MHz
Oscar 16 19 Sep 13:16:02 13:20:58 47° 69° (ENE) 13:25:57 437.025 USB, Beacon 2401.1428
JAS-1B 19 Sep 13:17:12 13:24:39 38° 65° (ENE) 13:31:02 435.800 - 435.900 CW/SSB
AO-Echo 19 Sep 13:32:48 13:36:54 30° 66° (ENE) 13:40:59 ?
Gurwin Techsat 1B 19 Sep 13:46:25 13:50:14 21° 60° (ENE) 13:54:03 435.225 FM
AO-7 19 Sep 13:49:58 13:53:39 14° 39° (NE) 13:57:20 29.400 - 29.500 MHz
RS-15 19 Sep 13:50:33 14:01:42 89° 236° (WSW) 14:13:17 29.354 - 29.394 USB, Beacon 29.352 USB
ITAMSAT 1 19 Sep 13:58:43 14:03:40 49° 69° (ENE) 14:08:39 435.822 SSB
Uribyol 2 19 Sep 14:02:54 14:07:56 56° 71° (ENE) 14:13:01 436.500 FM
Oscar 19 19 Sep 14:16:22 14:21:27 55° 260° (W) 14:26:35 437.125 CW, 437.150 USB
TMSAT-1 19 Sep 14:22:44 14:27:17 30° 65° (ENE) 14:31:51 436.925 FM
Sapphire 19 Sep 14:25:06 14:29:52 31° 315° (NW) 14:34:39 437.095 MHz 1200 baud AX-25 AFSK
AO-27 19 Sep 14:33:24 14:38:35 83° 256° (WSW) 14:43:48 436.795 MHz FM
PCSat 19 Sep 14:53:22 14:57:22 21° 322° (NW) 15:01:24 145.825 MHz
Oscar 16 19 Sep 14:56:21 15:00:32 24° 267° (W) 15:04:45 437.025 USB, Beacon 2401.1428
JAS-1B 19 Sep 15:06:47 15:15:06 52° 260° (W) 15:22:08 435.800 - 435.900 CW/SSB
AO-Echo 19 Sep 15:11:24 15:15:38 32° 264° (W) 15:19:51 ?
Oscar 10/S400 19 Sep 15:11:28 15:24:46 20° 144° (SE) 15:38:50 145.825 - 145.975 CW/USB, Beacon 145.810 USB
Gurwin Techsat 1B 19 Sep 15:24:29 15:29:44 63° 259° (WSW) 15:35:01 435.225 FM
AO-7 19 Sep 15:36:38 15:44:31 50° 62° (ENE) 15:52:24 29.400 - 29.500 MHz
ITAMSAT 1 19 Sep 15:39:22 15:43:25 23° 267° (W) 15:47:31 435.822 SSB
Uribyol 2 19 Sep 15:44:01 15:47:46 20° 268° (W) 15:51:33 436.500 FM
TMSAT-1 19 Sep 16:02:08 16:07:04 40° 263° (W) 16:12:03 436.925 FM
RS-15 19 Sep 16:04:18 16:12:36 25° 258° (WSW) 16:21:10 29.354 - 29.394 USB, Beacon 29.352 USB
AO-27 19 Sep 16:17:43 16:18:53 11° 273° (W) 16:20:03 436.795 MHz FM
Uosat F 19 Sep 16:20:10 16:25:05 63° 72° (ENE) 16:30:03 435.120 FM
OPAL 19 Sep 17:19:15 17:23:40 28° 97° (E) 17:28:00 ?
AO-7 19 Sep 17:29:42 17:37:25 42° 261° (W) 17:45:12 29.400 - 29.500 MHz
Saudisat 1A 19 Sep 17:31:35 17:35:42 41° 118° (ESE) 17:39:52 436.775 MHz
Hamsat 19 Sep 17:36:01 17:40:02 37° 70° (ENE) 17:44:03 145.90 MHz
JAS-2 19 Sep 17:51:36 17:56:47 63° 72° (ENE) 18:01:55 435.800 - 435.900 CW/SSB, 435.910 FM
Uosat F 19 Sep 18:01:07 18:04:19 17° 269° (W) 18:07:32 435.120 FM
MaSat-1 19 Sep 18:05:53 18:09:51 66° 60° (ENE) 18:13:13 437.345 MHz
OPAL 19 Sep 18:57:48 19:02:40 41° 295° (WNW) 19:07:26 ?
Saudisat 1A 19 Sep 19:11:34 19:15:24 29° 317° (NW) 19:19:17 436.775 MHz
SO-67 19 Sep 19:11:37 19:14:59 54° 74° (ENE) 19:18:23 435.3500 MHz FM
Hamsat 19 Sep 19:12:39 19:16:05 23° 267° (W) 19:19:33 145.90 MHz
STRAND 1 19 Sep 19:38:17 19:43:10 42° 98° (E) 19:48:02 ?
JAS-2 19 Sep 19:39:13 19:42:26 16° 270° (W) 19:45:39 435.800 - 435.900 CW/SSB, 435.910 FM
KITSAT 1 19 Sep 19:42:38 19:50:25 54° 114° (ESE) 19:58:13 435.175 FM
Sapphire 19 Sep 19:44:29 19:47:41 16° 33° (NNE) 19:50:52 437.095 MHz 1200 baud AX-25 AFSK
PCSat 19 Sep 20:11:04 20:15:17 22° 40° (NE) 20:19:29 145.825 MHz
HO-68 19 Sep 20:19:30 20:26:05 43° 63° (ENE) 20:32:43 435.675 MHz FM
Oscar 11 19 Sep 20:46:24 20:48:59 16° 62° (ENE) 20:51:34 145.825 FM, Beacon 2401.500 USB
UKube-1 19 Sep 21:01:43 21:05:29 30° 67° (ENE) 21:09:15 145.840 MHz, 145.915 MHz
AO-40 19 Sep 21:16:16 00:37:34 31° 193° (SSW) 05:32:25 Beacon 2401.320
STRAND 1 19 Sep 21:17:53 21:22:09 27° 296° (WNW) 21:26:26 ?
Sapphire 19 Sep 21:26:49 21:32:14 63° 55° (NE) 21:37:36 437.095 MHz 1200 baud AX-25 AFSK
KITSAT 1 19 Sep 21:38:23 21:46:01 44° 316° (NW) 21:53:43 435.175 FM
PCSat 19 Sep 21:53:53 21:59:19 78° 241° (WSW) 22:04:44 145.825 MHz
HO-68 19 Sep 22:07:06 22:13:47 42° 262° (W) 22:20:31 435.675 MHz FM
FUNcube-1 19 Sep 22:10:21 22:14:33 44° 71° (ENE) 22:18:52 145.950 - 145.970 MHz USB
Oscar 11 19 Sep 22:20:23 22:24:42 61° 259° (W) 22:29:03 145.825 FM, Beacon 2401.500 USB
UKube-1 19 Sep 22:37:55 22:41:39 28° 264° (W) 22:45:25 145.840 MHz, 145.915 MHz
SO-50 19 Sep 23:03:36 23:08:03 71° 123° (ESE) 23:12:40 436.795 FM
Sapphire 19 Sep 23:11:11 23:15:10 21° 253° (WSW) 23:19:08 437.095 MHz 1200 baud AX-25 AFSK
KITSAT 1 19 Sep 23:38:24 23:43:51 19° 343° (NNW) 23:49:19 435.175 FM
PCSat 19 Sep 23:40:16 23:41:48 11° 259° (WSW) 23:43:20 145.825 MHz
FUNcube-1 19 Sep 23:47:56 23:51:10 20° 269° (W) 23:54:29 145.950 - 145.970 MHz USB
Saudisat 1A 20 Sep 00:17:51 00:20:06 14° 30° (NNE) 00:22:21 436.775 MHz
UOSAT-12 20 Sep 00:40:38 00:45:10 59° 121° (ESE) 00:49:49 437.025 FM, 437.400 FM
SO-50 20 Sep 00:45:39 00:49:07 21° 323° (NW) 00:52:40 436.795 FM
Oscar 16 20 Sep 01:27:19 01:29:53 14° 88° (E) 01:32:26 437.025 USB, Beacon 2401.1428
KITSAT 1 20 Sep 01:37:38 01:42:57 18° 14° (NNE) 01:48:14 435.175 FM
Saudisat 1A 20 Sep 01:56:10 02:00:35 62° 51° (NE) 02:04:57 436.775 MHz
ITAMSAT 1 20 Sep 02:10:56 02:13:47 15° 89° (E) 02:16:37 435.822 SSB
Uribyol 2 20 Sep 02:14:41 02:18:03 17° 90° (E) 02:21:23 436.500 FM
UOSAT-12 20 Sep 02:21:49 02:25:40 25° 321° (NW) 02:29:35 437.025 FM, 437.400 FM
Oscar 19 20 Sep 02:25:54 02:30:52 45° 99° (E) 02:35:47 437.125 CW, 437.150 USB
ISS 20 Sep 02:41:36 02:44:16 23° 137° (SE) 02:46:57 145.800 FM
AO-27 20 Sep 02:44:43 02:49:18 30° 95° (E) 02:53:51 436.795 MHz FM
JAS-1B 20 Sep 02:50:08 02:55:28 37° 97° (E) 03:00:43 435.800 - 435.900 CW/SSB
OPAL 20 Sep 03:01:50 03:02:59 11° 51° (NE) 03:04:07 ?
Oscar 16 20 Sep 03:04:40 03:09:52 80° 286° (WNW) 03:15:01 437.025 USB, Beacon 2401.1428
AO-Echo 20 Sep 03:15:23 03:20:12 66° 102° (ESE) 03:25:09 ?
KITSAT 1 20 Sep 03:33:22 03:40:56 41° 42° (NE) 03:48:26 435.175 FM
Saudisat 1A 20 Sep 03:36:52 03:39:42 17° 249° (WSW) 03:42:31 436.775 MHz
Gurwin Techsat 1B 20 Sep 03:38:38 03:43:44 45° 99° (E) 03:48:48 435.225 FM
AO-7 20 Sep 03:39:29 03:41:41 11° 84° (E) 03:43:53 29.400 - 29.500 MHz
ITAMSAT 1 20 Sep 03:48:38 03:53:52 77° 287° (WNW) 03:59:04 435.822 SSB
Uribyol 2 20 Sep 03:52:48 03:58:00 67° 288° (WNW) 04:03:11 436.500 FM
Oscar 10/S400 20 Sep 04:05:35 05:01:14 18° 247° (WSW) 06:56:34 145.825 - 145.975 CW/USB, Beacon 145.810 USB
Oscar 19 20 Sep 04:05:44 04:09:58 26° 297° (WNW) 04:14:10 437.125 CW, 437.150 USB
TMSAT-1 20 Sep 04:15:22 04:20:41 71° 102° (ESE) 04:25:58 436.925 FM
RS-15 20 Sep 04:16:34 04:26:55 49° 112° (ESE) 04:37:09 29.354 - 29.394 USB, Beacon 29.352 USB
ISS 20 Sep 04:17:28 04:20:46 61° 335° (NNW) 04:24:04 145.800 FM
AO-27 20 Sep 04:24:04 04:28:52 38° 293° (WNW) 04:33:40 436.795 MHz FM
Uosat F 20 Sep 04:27:01 04:30:09 16° 90° (E) 04:33:16 435.120 FM
OPAL 20 Sep 04:35:44 04:40:51 63° 69° (ENE) 04:46:01 ?
JAS-1B 20 Sep 04:41:04 04:46:08 32° 297° (WNW) 04:51:04 435.800 - 435.900 CW/SSB
Oscar 16 20 Sep 04:46:12 04:48:23 13° 305° (NW) 04:50:34 437.025 USB, Beacon 2401.1428
AO-Echo 20 Sep 04:55:25 04:58:31 17° 299° (WNW) 05:01:39 ?
Gurwin Techsat 1B 20 Sep 05:19:04 05:23:28 27° 296° (WNW) 05:27:52 435.225 FM
STRAND 1 20 Sep 05:21:14 05:22:57 12° 55° (NE) 05:24:41 ?
AO-7 20 Sep 05:27:58 05:36:11 61° 104° (ESE) 05:44:21 29.400 - 29.500 MHz
KITSAT 1 20 Sep 05:28:48 05:36:42 60° 244° (WSW) 05:44:33 435.175 FM
ITAMSAT 1 20 Sep 05:30:27 05:32:30 12° 305° (NW) 05:34:33 435.822 SSB
Uribyol 2 20 Sep 05:35:17 05:36:30 11° 307° (NW) 05:37:43 436.500 FM
SO-50 20 Sep 05:53:19 05:57:01 22° 37° (NE) 06:00:46 436.795 FM
ISS 20 Sep 05:55:02 05:57:55 26° 354° (N) 06:00:49 145.800 FM
TMSAT-1 20 Sep 05:56:30 06:00:02 19° 301° (WNW) 06:03:35 436.925 FM
Uosat F 20 Sep 06:04:25 06:09:24 66° 288° (WNW) 06:14:23 435.120 FM
OPAL 20 Sep 06:16:35 06:20:09 19° 267° (W) 06:23:45 ?
RS-15 20 Sep 06:28:21 06:39:07 57° 316° (NW) 06:49:54 29.354 - 29.394 USB, Beacon 29.352 USB
JAS-2 20 Sep 06:41:25 06:47:14 50° 100° (E) 06:53:46 435.800 - 435.900 CW/SSB, 435.910 FM
Hamsat 20 Sep 06:55:17 06:59:30 56° 100° (E) 07:03:38 145.90 MHz
STRAND 1 20 Sep 06:56:12 07:01:16 76° 73° (ENE) 07:06:23 ?
AO-7 20 Sep 07:21:19 07:28:34 36° 304° (NW) 07:35:49 29.400 - 29.500 MHz
KITSAT 1 20 Sep 07:28:31 07:30:23 11° 264° (W) 07:32:16 435.175 FM
UOSAT-12 20 Sep 07:28:59 07:32:19 19° 34° (NE) 07:35:37 437.025 FM, 437.400 FM
ISS 20 Sep 07:32:10 07:35:15 33° 15° (NNE) 07:38:19 145.800 FM
SO-50 20 Sep 07:33:18 07:38:06 75° 237° (WSW) 07:42:57 436.795 FM
Uosat F 20 Sep 07:47:04 07:47:14 10° 306° (NW) 07:47:25 435.120 FM
MaSat-1 20 Sep 07:53:39 07:57:25 22° 105° (ESE) 08:01:09 437.345 MHz
SO-67 20 Sep 08:06:06 08:09:28 48° 99° (E) 08:12:49 435.3500 MHz FM
JAS-2 20 Sep 08:27:03 08:32:09 31° 295° (WNW) 08:37:46 435.800 - 435.900 CW/SSB, 435.910 FM
Hamsat 20 Sep 08:32:28 08:35:00 16° 298° (WNW) 08:37:32 145.90 MHz
STRAND 1 20 Sep 08:38:20 08:41:03 14° 271° (W) 08:43:46 ?
RS-15 20 Sep 08:45:21 08:54:27 29° 348° (NNW) 09:03:40 29.354 - 29.394 USB, Beacon 29.352 USB
UOSAT-12 20 Sep 09:08:24 09:13:10 88° 55° (NE) 09:17:50 437.025 FM, 437.400 FM
ISS 20 Sep 09:08:50 09:12:08 63° 214° (SSW) 09:15:25 145.800 FM
MaSat-1 20 Sep 09:28:54 09:33:50 56° 302° (WNW) 09:38:39 437.345 MHz
HO-68 20 Sep 09:32:06 09:38:34 35° 96° (E) 09:45:00 435.675 MHz FM
SO-67 20 Sep 09:40:43 09:42:05 12° 296° (WNW) 09:43:28 435.3500 MHz FM
Oscar 11 20 Sep 10:06:39 10:09:59 21° 93° (E) 10:13:16 145.825 FM, Beacon 2401.500 USB
UKube-1 20 Sep 10:23:26 10:27:33 40° 99° (E) 10:31:39 145.840 MHz, 145.915 MHz
UOSAT-12 20 Sep 10:50:38 10:52:35 13° 252° (WSW) 10:54:32 437.025 FM, 437.400 FM
RS-15 20 Sep 11:01:30 11:11:09 33° 23° (NNE) 11:21:01 29.354 - 29.394 USB, Beacon 29.352 USB
MaSat-1 20 Sep 11:09:51 11:11:34 12° 321° (NW) 11:13:16 437.345 MHz
HO-68 20 Sep 11:19:36 11:26:28 51° 295° (WNW) 11:33:20 435.675 MHz FM
FUNcube-1 20 Sep 11:33:27 11:38:06 73° 102° (ESE) 11:42:40 145.950 - 145.970 MHz USB
Oscar 11 20 Sep 11:42:15 11:46:19 39° 290° (WNW) 11:50:21 145.825 FM, Beacon 2401.500 USB
JAS-1B 20 Sep 11:53:24 11:54:20 10° 48° (NE) 11:55:15 435.800 - 435.900 CW/SSB
UKube-1 20 Sep 12:00:10 12:03:31 22° 296° (WNW) 12:06:52 145.840 MHz, 145.915 MHz
Oscar 19 20 Sep 12:09:10 12:11:21 13° 56° (NE) 12:13:33 437.125 CW, 437.150 USB
